This is the latest recevied weather packets stored in our database for station/object KR4DFQ. If no packets are shown the sender has not sent any weather packets the latest 10 day(s).
| Time | Temp. | Humidity | Pressure | Rain* | Wind** | Luminosity | Snow |
|---|---|---|---|---|---|---|---|
| 1787685291 | 34.44° C | 58% | 1016.3 hPa | 0 mm | - | 750 W/m² | - |
| 1787684990 | 34.44° C | 59% | 1016.4 hPa | 0 mm | - | 789 W/m² | - |
| 1787684687 | 35° C | 58% | 1016.3 hPa | 0 mm | - | 839 W/m² | - |
| 1787684384 | 35° C | 56% | 1016.4 hPa | 0 mm | - | 813 W/m² | - |
| 1787684081 | 33.89° C | 56% | 1016.5 hPa | 0 mm | - | 827 W/m² | - |
| 1787683779 | 33.89° C | 57% | 1016.7 hPa | 0 mm | - | 854 W/m² | - |
| 1787683476 | 33.89° C | 60% | 1016.8 hPa | 0 mm | - | 719 W/m² | - |
| 1787683171 | 33.89° C | 59% | 1016.8 hPa | 0 mm | - | 627 W/m² | - |
| 1787682868 | 33.89° C | 59% | 1016.8 hPa | 0 mm | - | 451 W/m² | - |
| 1787682564 | 33.89° C | 57% | 1016.8 hPa | 0 mm | - | 486 W/m² | - |
| 1787682259 | 33.89° C | 57% | 1016.8 hPa | 0 mm | - | 686 W/m² | - |
| 1787681955 | 33.89° C | 55% | 1017.1 hPa | 0 mm | - | 723 W/m² | - |
| 1787681655 | 33.89° C | 55% | 1017 hPa | 0 mm | - | 854 W/m² | - |
| 1787681349 | 33.89° C | 56% | 1017.2 hPa | 0 mm | - | 836 W/m² | - |
| 1787681045 | 34.44° C | 54% | 1017.3 hPa | 0 mm | - | 779 W/m² | - |
| 1787680744 | 33.89° C | 57% | 1017.2 hPa | 0 mm | - | 806 W/m² | - |
| 1787680439 | 33.89° C | 55% | 1017.2 hPa | 0 mm | - | 755 W/m² | - |
| 1787680137 | 34.44° C | 57% | 1017.3 hPa | 0 mm | - | 661 W/m² | - |
| 1787679833 | 34.44° C | 57% | 1017.2 hPa | 0 mm | - | 696 W/m² | - |
| 1787679532 | 34.44° C | 56% | 1017.4 hPa | 0 mm | - | 860 W/m² | - |
| 1787679228 | 35° C | 57% | 1017.6 hPa | 0 mm | - | 849 W/m² | - |
| 1787678924 | 35° C | 54% | 1017.5 hPa | 0 mm | - | 866 W/m² | - |
| 1787678622 | 35° C | 52% | 1017.6 hPa | 0 mm | - | 783 W/m² | - |
| 1787678318 | 34.44° C | 56% | 1017.7 hPa | 0 mm | - | 768 W/m² | - |
| 1787678013 | 34.44° C | 54% | 1017.8 hPa | 0 mm | - | 807 W/m² | - |
* Rain latest hour (hover to see other rain measurements)
** Current wind speed in m/s (hover to see current wind gust speed)